Weather History for Whiting Fld NAS, FL

Change the Weather History Date:

Thursday, April 10, 2014

  Actual Average Record
Temperature  
Mean Temperature 58 °F -  
Max Temperature 75 °F 73 °F 88 °F (2011)
Min Temperature 43 °F 54 °F 43 °F (2014)
Degree Days  
Heating Degree Days 7    
Growing Degree Days 8 (Base 50)    
Moisture  
Dew Point 44 °F    
Average Humidity 64    
Maximum Humidity 93    
Minimum Humidity 27    
Precipitation  
Precipitation 0.00 in - - ()
Sea Level Pressure  
Sea Level Pressure 30.20 in    
Wind  
Wind Speed 4 mph (South)    
Max Wind Speed 16 mph    
Max Gust Speed 18 mph    
Visibility 10 miles    
Events Fog    
Averages and records for this station are not official NWS values.
T = Trace of Precipitation, MM = Missing Value Source: NWS Daily Summary

Daily Weather History Graph

Daily Weather History Graph

Search for Another Location

Airport:

Trip Planner

Search our weather history database for the weather conditions in past years. The results will help you decide how hot, cold, wet, or windy it might be!

Date:

Astronomy

Apr. 10, 2014 Rise Set
Actual Time 6:26 AM CDT 7:12 PM CDT
Civil Twilight 6:01 AM CDT 7:37 PM CDT
Nautical Twilight 5:32 AM CDT 8:06 PM CDT
Astronomical Twilight 5:03 AM CDT 8:36 PM CDT
Moon 3:12 PM CDT (4/10) 3:31 AM CDT (4/10)
Length of Visible Light 13h 35m
Length of Day
12h 46m
Waxing Gibbous, 80% of the Moon is Illuminated
Apr 10
Waxing Gibbous
Apr 15
Full
Apr 22
Last Quarter
Apr 29
New
May 6
First Quarter

Hourly Weather History & Observations

Time (CDT) Temp. Dew Point Humidity Pressure Visibility Wind Dir Wind Speed Gust Speed Precip Events Conditions
12:56 AM 51.1 °F 45.0 °F 80% 30.17 in 10.0 mi NW 4.6 mph - N/A   Clear
1:56 AM 48.9 °F 45.0 °F 86% 30.17 in 10.0 mi Calm Calm - N/A   Clear
2:56 AM 46.0 °F 43.0 °F 89% 30.17 in 10.0 mi Calm Calm - N/A   Clear
3:56 AM 44.1 °F 41.0 °F 89% 30.17 in 7.0 mi Calm Calm - N/A   Clear
4:56 AM 43.0 °F 39.9 °F 89% 30.18 in 5.0 mi Calm Calm - N/A   Clear
5:56 AM 43.0 °F 41.0 °F 93% 30.20 in 9.0 mi Calm Calm - N/A   Clear
6:56 AM 44.1 °F 42.1 °F 93% 30.22 in 7.0 mi Calm Calm - N/A Fog Patches of Fog
7:56 AM 53.1 °F 50.0 °F 89% 30.23 in 9.0 mi Calm Calm - N/A   Clear
8:56 AM 62.1 °F 54.0 °F 75% 30.24 in 10.0 mi Calm Calm - N/A   Partly Cloudy
9:56 AM 68.0 °F 44.1 °F 42% 30.25 in 10.0 mi South 4.6 mph - N/A   Partly Cloudy
10:56 AM 71.1 °F 41.0 °F 34% 30.25 in 10.0 mi SSE 9.2 mph - N/A   Partly Cloudy
11:56 AM 73.0 °F 42.1 °F 33% 30.23 in 10.0 mi South 12.7 mph 17.3 mph N/A   Partly Cloudy
12:56 PM 73.9 °F 39.0 °F 28% 30.22 in 10.0 mi South 10.4 mph 18.4 mph N/A   Partly Cloudy
1:56 PM 73.9 °F 37.9 °F 27% 30.20 in 10.0 mi South 12.7 mph - N/A   Partly Cloudy
2:56 PM 73.9 °F 37.9 °F 27% 30.18 in 10.0 mi South 13.8 mph - N/A   Partly Cloudy
3:56 PM 72.0 °F 37.9 °F 29% 30.18 in 10.0 mi SSE 8.1 mph - N/A   Partly Cloudy
4:56 PM 71.1 °F 39.0 °F 31% 30.17 in 10.0 mi South 16.1 mph - N/A   Partly Cloudy
5:56 PM 69.1 °F 39.0 °F 33% 30.18 in 10.0 mi South 16.1 mph - N/A   Partly Cloudy
6:56 PM 64.9 °F 46.9 °F 52% 30.18 in 10.0 mi South 9.2 mph - N/A   Clear
7:56 PM 60.1 °F 50.0 °F 69% 30.18 in 10.0 mi South 5.8 mph - N/A   Partly Cloudy
8:56 PM 55.9 °F 48.9 °F 77% 30.19 in 10.0 mi SSE 6.9 mph - 0.00 in   Clear
9:56 PM 55.9 °F 50.0 °F 80% 30.20 in 10.0 mi SSE 4.6 mph - N/A   Clear
10:45 PM 53.1 °F 50.0 °F 89% 30.24 in 10.0 mi Calm Calm - N/A   Clear
10:56 PM 53.1 °F 48.9 °F 86% 30.20 in 10.0 mi SSE 3.5 mph - N/A   Clear
11:56 PM 52.0 °F 48.9 °F 89% 30.19 in 10.0 mi SE 3.5 mph - N/A   Clear